Tracking 30995 objects as of 5-Jul-2025
HD Live streaming from Space Station
objects crossing your sky now

COSMOS 256

Track COSMOS 256 now!
10-day predictions
COSMOS 256 is classified as:


NORAD ID: 3576
Int'l Code: 1968-106A
Perigee: 1,178.0 km
Apogee: 1,229.7 km
Inclination: 74.0 °
Period: 109.4 minutes
Semi major axis: 7574 km
RCS: 3.2431 m2 (large)
Launch date: November 30, 1968
Source: Commonwealth of Independent States (former USSR) (CIS)
Launch site: PLESETSK MISSILE AND SPACE COMPLEX (PKMTR)
Your satellite tracking list
DIADEME 2
Track 1 satellite(s)




NASA's NSSDC Master Catalog

Two Line Element Set (TLE):
1 03576U 68106A   25185.94277362 -.00000303  00000-0 -73719-3 0  9991
2 03576  74.0481 251.6903 0034171 323.3677 210.3429 13.16870604719981
Source of the keplerian elements: AFSPC